Time,TemperatureF,DewpointF,PressureIn,WindDirection,WindDirectionDegrees,WindSpeedMPH,WindSpeedGustMPH,Humidity,HourlyPrecipIn,Conditions,Clouds,dailyrainin,SoftwareType,DateUTC
2013-01-03 00:01:00,51.3,48.7,30.36,North,-999,0.0,2.2,91,0.00,,,0.00,pywws,2013-01-03 00:01:00,
2013-01-03 00:06:00,51.1,48.5,30.36,North,-999,0.0,1.6,91,0.00,,,0.00,pywws,2013-01-03 00:06:00,
2013-01-03 00:11:00,51.1,48.5,30.37,West,270,2.2,4.5,91,0.00,,,0.00,pywws,2013-01-03 00:11:00,
2013-01-03 00:16:00,51.1,48.5,30.37,North,-999,0.0,1.6,91,0.00,,,0.00,pywws,2013-01-03 00:16:00,
2013-01-03 00:21:00,50.9,48.4,30.37,SW,225,0.7,2.2,91,0.00,,,0.00,pywws,2013-01-03 00:21:00,
2013-01-03 00:31:00,50.9,48.4,30.37,North,-999,0.0,1.6,91,0.00,,,0.00,pywws,2013-01-03 00:31:00,
2013-01-03 00:36:00,50.7,48.2,30.38,NW,315,2.2,7.6,91,0.00,,,0.00,pywws,2013-01-03 00:36:00,
2013-01-03 00:41:00,50.7,48.2,30.37,North,-999,0.0,0.7,91,0.00,,,0.00,pywws,2013-01-03 00:41:00,
2013-01-03 00:46:00,50.4,47.8,30.38,North,-999,0.0,0.7,91,0.00,,,0.00,pywws,2013-01-03 00:46:00,
2013-01-03 00:51:00,50.5,48.3,30.38,North,0,2.2,6.9,92,0.00,,,0.00,pywws,2013-01-03 00:51:00,
2013-01-03 01:01:00,50.5,48.3,30.38,West,270,0.7,1.6,92,0.00,,,0.00,pywws,2013-01-03 01:01:00,
2013-01-03 01:06:00,50.4,47.8,30.37,North,-999,0.0,0.0,91,0.00,,,0.00,pywws,2013-01-03 01:06:00,
2013-01-03 01:11:00,50.0,47.8,30.37,North,-999,0.0,0.0,92,0.00,,,0.00,pywws,2013-01-03 01:11:00,
2013-01-03 01:16:00,49.8,47.6,30.38,North,-999,0.0,0.0,92,0.00,,,0.00,pywws,2013-01-03 01:16:00,
2013-01-03 01:21:00,49.8,47.6,30.38,North,-999,0.0,0.7,92,0.00,,,0.00,pywws,2013-01-03 01:21:00,
2013-01-03 01:31:00,50.0,47.8,30.38,West,270,0.7,3.1,92,0.00,,,0.00,pywws,2013-01-03 01:31:00,
2013-01-03 01:36:00,49.8,47.9,30.38,SW,225,0.7,2.2,93,0.00,,,0.00,pywws,2013-01-03 01:36:00,
2013-01-03 01:41:00,49.8,47.9,30.38,West,270,0.7,3.1,93,0.00,,,0.00,pywws,2013-01-03 01:41:00,
2013-01-03 01:46:00,50.0,48.1,30.39,North,-999,0.0,1.6,93,0.00,,,0.00,pywws,2013-01-03 01:46:00,
2013-01-03 01:51:00,50.0,48.1,30.39,North,-999,0.0,1.6,93,0.00,,,0.00,pywws,2013-01-03 01:51:00,
2013-01-03 02:01:00,50.2,48.2,30.39,North,-999,0.0,1.6,93,0.00,,,0.00,pywws,2013-01-03 02:01:00,
2013-01-03 02:05:00,50.2,48.2,30.40,West,270,0.7,2.2,93,0.00,,,0.00,pywws,2013-01-03 02:05:00,
2013-01-03 02:10:00,50.4,48.4,30.39,North,-999,0.0,1.6,93,0.00,,,0.00,pywws,2013-01-03 02:10:00,
2013-01-03 02:15:00,50.4,48.4,30.40,SW,225,0.7,2.2,93,0.00,,,0.00,pywws,2013-01-03 02:15:00,
2013-01-03 02:20:00,50.4,48.4,30.40,North,-999,0.0,3.1,93,0.00,,,0.00,pywws,2013-01-03 02:20:00,
2013-01-03 02:31:00,50.4,48.4,30.40,North,-999,0.0,0.7,93,0.00,,,0.00,pywws,2013-01-03 02:31:00,
2013-01-03 02:36:00,50.5,48.6,30.40,South,180,0.7,3.1,93,0.00,,,0.00,pywws,2013-01-03 02:36:00,
2013-01-03 02:41:00,50.5,48.6,30.40,North,-999,0.0,0.0,93,0.00,,,0.00,pywws,2013-01-03 02:41:00,
2013-01-03 02:46:00,50.4,48.4,30.40,North,-999,0.0,1.6,93,0.00,,,0.00,pywws,2013-01-03 02:46:00,
2013-01-03 02:51:00,50.4,48.4,30.41,NW,315,0.7,3.1,93,0.00,,,0.00,pywws,2013-01-03 02:51:00,
2013-01-03 03:01:00,50.2,48.2,30.41,North,-999,0.0,1.6,93,0.00,,,0.00,pywws,2013-01-03 03:01:00,
2013-01-03 03:06:00,50.5,48.6,30.41,North,-999,0.0,0.7,93,0.00,,,0.00,pywws,2013-01-03 03:06:00,
2013-01-03 03:11:00,50.5,48.3,30.41,North,-999,0.0,1.6,92,0.00,,,0.00,pywws,2013-01-03 03:11:00,
2013-01-03 03:16:00,50.5,48.3,30.41,North,-999,0.0,0.7,92,0.00,,,0.00,pywws,2013-01-03 03:16:00,
2013-01-03 03:21:00,50.4,48.4,30.41,West,270,2.2,6.0,93,0.00,,,0.00,pywws,2013-01-03 03:21:00,
2013-01-03 03:32:00,50.4,48.4,30.42,North,-999,0.0,1.6,93,0.00,,,0.00,pywws,2013-01-03 03:32:00,
2013-01-03 03:36:00,50.5,48.3,30.41,North,-999,0.0,2.2,92,0.00,,,0.00,pywws,2013-01-03 03:36:00,
2013-01-03 03:41:00,50.5,48.3,30.41,North,-999,0.0,1.6,92,0.00,,,0.00,pywws,2013-01-03 03:41:00,
2013-01-03 03:46:00,50.4,48.1,30.41,North,-999,0.0,0.7,92,0.00,,,0.00,pywws,2013-01-03 03:46:00,
2013-01-03 03:51:00,50.4,48.1,30.41,North,-999,0.0,3.8,92,0.00,,,0.00,pywws,2013-01-03 03:51:00,
2013-01-03 04:01:00,50.0,47.8,30.42,North,-999,0.0,0.0,92,0.00,,,0.00,pywws,2013-01-03 04:01:00,
2013-01-03 04:06:00,49.6,47.4,30.42,North,-999,0.0,0.0,92,0.00,,,0.00,pywws,2013-01-03 04:06:00,
2013-01-03 04:11:00,49.3,47.1,30.42,North,-999,0.0,3.1,92,0.00,,,0.00,pywws,2013-01-03 04:11:00,
2013-01-03 04:16:00,49.1,46.9,30.42,North,-999,0.0,0.7,92,0.00,,,0.00,pywws,2013-01-03 04:16:00,
2013-01-03 04:21:00,49.3,47.1,30.42,North,-999,0.0,0.0,92,0.00,,,0.00,pywws,2013-01-03 04:21:00,
2013-01-03 04:31:00,48.7,46.5,30.42,North,-999,0.0,0.0,92,0.00,,,0.00,pywws,2013-01-03 04:31:00,
2013-01-03 04:36:00,48.4,46.5,30.42,North,-999,0.0,0.7,93,0.00,,,0.00,pywws,2013-01-03 04:36:00,
2013-01-03 04:41:00,48.6,46.6,30.43,North,-999,0.0,0.7,93,0.00,,,0.00,pywws,2013-01-03 04:41:00,
2013-01-03 04:46:00,48.2,46.3,30.44,North,-999,0.0,0.0,93,0.00,,,0.00,pywws,2013-01-03 04:46:00,
2013-01-03 04:51:00,48.6,46.6,30.44,North,-999,0.0,0.0,93,0.00,,,0.00,pywws,2013-01-03 04:51:00,
2013-01-03 05:02:00,48.6,46.6,30.43,SW,225,0.7,2.2,93,0.00,,,0.00,pywws,2013-01-03 05:02:00,
2013-01-03 05:03:00,48.6,46.6,30.44,North,-999,0.0,0.7,93,0.00,,,0.00,pywws,2013-01-03 05:03:00,
2013-01-03 05:06:00,48.6,46.6,30.44,North,-999,0.0,0.7,93,0.00,,,0.00,pywws,2013-01-03 05:06:00,
2013-01-03 05:11:00,47.8,45.9,30.44,North,-999,0.0,1.6,93,0.00,,,0.00,pywws,2013-01-03 05:11:00,
2013-01-03 05:16:00,48.0,46.1,30.43,North,-999,0.0,0.0,93,0.00,,,0.00,pywws,2013-01-03 05:16:00,
2013-01-03 05:21:00,48.0,46.1,30.43,North,-999,0.0,0.0,93,0.00,,,0.00,pywws,2013-01-03 05:21:00,
2013-01-03 05:31:00,48.0,46.4,30.43,North,-999,0.0,0.7,94,0.00,,,0.00,pywws,2013-01-03 05:31:00,
2013-01-03 05:36:00,48.2,46.6,30.43,North,-999,0.0,1.6,94,0.00,,,0.00,pywws,2013-01-03 05:36:00,
2013-01-03 05:41:00,48.2,46.6,30.43,NNW,338,0.7,2.2,94,0.00,,,0.00,pywws,2013-01-03 05:41:00,
2013-01-03 05:46:00,48.6,46.9,30.44,North,-999,0.0,1.6,94,0.00,,,0.00,pywws,2013-01-03 05:46:00,
2013-01-03 05:51:00,48.6,46.9,30.44,North,-999,0.0,1.6,94,0.00,,,0.00,pywws,2013-01-03 05:51:00,
2013-01-03 06:01:00,48.9,47.3,30.44,North,-999,0.0,1.6,94,0.00,,,0.00,pywws,2013-01-03 06:01:00,
2013-01-03 06:05:00,48.9,47.3,30.45,North,-999,0.0,3.1,94,0.00,,,0.00,pywws,2013-01-03 06:05:00,
2013-01-03 06:10:00,49.3,47.6,30.44,West,270,0.7,3.1,94,0.00,,,0.00,pywws,2013-01-03 06:10:00,
2013-01-03 06:15:00,49.3,47.6,30.45,South,180,1.6,4.5,94,0.00,,,0.00,pywws,2013-01-03 06:15:00,
2013-01-03 06:20:00,49.3,47.6,30.45,North,-999,0.0,0.7,94,0.00,,,0.00,pywws,2013-01-03 06:20:00,
2013-01-03 06:31:00,49.3,47.6,30.45,West,270,0.7,2.2,94,0.00,,,0.00,pywws,2013-01-03 06:31:00,
2013-01-03 06:36:00,49.5,47.8,30.45,North,0,0.7,3.1,94,0.00,,,0.00,pywws,2013-01-03 06:36:00,
2013-01-03 06:41:00,49.5,47.8,30.46,SW,225,0.7,3.1,94,0.00,,,0.00,pywws,2013-01-03 06:41:00,
2013-01-03 06:46:00,49.5,47.8,30.47,South,180,1.6,3.1,94,0.00,,,0.00,pywws,2013-01-03 06:46:00,
2013-01-03 07:06:00,49.5,47.8,30.47,SW,225,0.7,2.2,94,0.00,,,0.00,pywws,2013-01-03 07:06:00,
2013-01-03 07:11:00,49.5,47.8,30.47,West,270,0.7,2.2,94,0.00,,,0.00,pywws,2013-01-03 07:11:00,
2013-01-03 07:16:00,49.5,47.8,30.47,North,-999,0.0,1.6,94,0.00,,,0.00,pywws,2013-01-03 07:16:00,
2013-01-03 07:21:00,49.3,47.6,30.47,North,-999,0.0,2.2,94,0.00,,,0.00,pywws,2013-01-03 07:21:00,
2013-01-03 07:31:00,49.5,47.8,30.48,North,-999,0.0,1.6,94,0.00,,,0.00,pywws,2013-01-03 07:31:00,
2013-01-03 07:36:00,49.8,48.2,30.48,North,-999,0.0,1.6,94,0.00,,,0.00,pywws,2013-01-03 07:36:00,
2013-01-03 07:41:00,49.8,48.2,30.48,SW,225,0.7,2.2,94,0.00,,,0.00,pywws,2013-01-03 07:41:00,
2013-01-03 07:46:00,49.6,48.0,30.48,NW,315,0.7,3.1,94,0.00,,,0.00,pywws,2013-01-03 07:46:00,
2013-01-03 07:51:00,49.8,48.2,30.48,West,270,0.7,3.1,94,0.00,,,0.00,pywws,2013-01-03 07:51:00,
2013-01-03 08:01:00,50.0,48.3,30.48,South,180,1.6,4.5,94,0.00,,,0.00,pywws,2013-01-03 08:01:00,
2013-01-03 08:06:00,49.8,48.2,30.49,North,-999,0.0,1.6,94,0.00,,,0.00,pywws,2013-01-03 08:06:00,
2013-01-03 08:11:00,49.8,47.9,30.49,North,-999,0.0,2.2,93,0.00,,,0.00,pywws,2013-01-03 08:11:00,
2013-01-03 08:16:00,49.8,47.9,30.50,West,270,0.7,3.1,93,0.00,,,0.00,pywws,2013-01-03 08:16:00,
2013-01-03 08:21:00,53.4,51.4,30.49,NE,45,0.7,3.1,93,0.00,,,0.00,pywws,2013-01-03 08:21:00,
2013-01-03 08:31:00,50.0,48.1,30.50,SW,225,0.7,2.2,93,0.00,,,0.00,pywws,2013-01-03 08:31:00,
2013-01-03 08:36:00,50.2,47.9,30.50,NW,315,0.7,3.1,92,0.00,,,0.00,pywws,2013-01-03 08:36:00,
2013-01-03 08:41:00,50.0,47.8,30.50,NE,45,0.7,2.2,92,0.00,,,0.00,pywws,2013-01-03 08:41:00,
2013-01-03 08:46:00,50.0,47.8,30.50,North,-999,0.0,0.7,92,0.00,,,0.00,pywws,2013-01-03 08:46:00,
2013-01-03 08:51:00,50.2,47.9,30.51,West,270,0.7,2.2,92,0.00,,,0.00,pywws,2013-01-03 08:51:00,
2013-01-03 09:01:00,50.2,47.9,30.51,North,-999,0.0,1.6,92,0.00,,,0.00,pywws,2013-01-03 09:01:00,
2013-01-03 09:06:00,50.5,48.0,30.52,North,0,0.7,1.6,91,0.00,,,0.00,pywws,2013-01-03 09:06:00,
2013-01-03 09:11:00,50.5,48.0,30.52,NW,315,0.7,3.1,91,0.00,,,0.00,pywws,2013-01-03 09:11:00,
2013-01-03 09:16:00,50.5,47.7,30.51,NW,315,0.7,4.5,90,0.00,,,0.00,pywws,2013-01-03 09:16:00,
2013-01-03 09:21:00,50.7,47.9,30.51,North,-999,0.0,1.6,90,0.00,,,0.00,pywws,2013-01-03 09:21:00,
2013-01-03 09:31:00,50.5,47.7,30.52,West,270,0.7,2.2,90,0.00,,,0.00,pywws,2013-01-03 09:31:00,
2013-01-03 09:36:00,50.9,48.1,30.53,South,180,1.6,3.8,90,0.00,,,0.00,pywws,2013-01-03 09:36:00,
2013-01-03 09:41:00,50.9,47.8,30.53,SW,225,1.6,4.5,89,0.00,,,0.00,pywws,2013-01-03 09:41:00,
2013-01-03 09:46:00,51.1,48.0,30.53,North,-999,0.0,2.2,89,0.00,,,0.00,pywws,2013-01-03 09:46:00,
2013-01-03 09:51:00,51.1,48.0,30.53,West,270,0.7,1.6,89,0.00,,,0.00,pywws,2013-01-03 09:51:00,
2013-01-03 10:01:00,51.1,47.7,30.53,North,-999,0.0,0.7,88,0.00,,,0.00,pywws,2013-01-03 10:01:00,
2013-01-03 10:06:00,51.3,47.8,30.53,SW,225,0.7,3.1,88,0.00,,,0.00,pywws,2013-01-03 10:06:00,
2013-01-03 10:11:00,51.4,48.0,30.52,West,270,2.2,5.4,88,0.00,,,0.00,pywws,2013-01-03 10:11:00,
2013-01-03 10:16:00,51.1,47.7,30.53,North,-999,0.0,1.6,88,0.00,,,0.00,pywws,2013-01-03 10:16:00,
2013-01-03 10:21:00,50.9,47.5,30.53,North,-999,0.0,2.2,88,0.00,,,0.00,pywws,2013-01-03 10:21:00,
2013-01-03 10:31:00,50.9,47.5,30.53,West,270,0.7,2.2,88,0.00,,,0.00,pywws,2013-01-03 10:31:00,
2013-01-03 10:36:00,51.1,47.7,30.53,NE,45,1.6,4.5,88,0.00,,,0.00,pywws,2013-01-03 10:36:00,
2013-01-03 10:41:00,51.4,48.0,30.53,West,270,1.6,5.4,88,0.00,,,0.00,pywws,2013-01-03 10:41:00,
2013-01-03 10:46:00,51.4,47.7,30.53,SW,225,1.6,3.8,87,0.00,,,0.00,pywws,2013-01-03 10:46:00,
2013-01-03 10:51:00,51.4,48.0,30.53,SW,225,1.6,3.1,88,0.00,,,0.00,pywws,2013-01-03 10:51:00,
2013-01-03 11:01:00,51.6,47.9,30.54,West,270,1.6,3.8,87,0.00,,,0.00,pywws,2013-01-03 11:01:00,
2013-01-03 11:06:00,51.8,48.1,30.54,NE,45,1.6,5.4,87,0.00,,,0.00,pywws,2013-01-03 11:06:00,
2013-01-03 11:11:00,52.0,48.2,30.54,North,-999,0.0,1.6,87,0.00,,,0.00,pywws,2013-01-03 11:11:00,
2013-01-03 11:16:00,52.0,48.2,30.54,North,-999,0.0,0.7,87,0.00,,,0.00,pywws,2013-01-03 11:16:00,
2013-01-03 11:21:00,52.0,48.2,30.55,North,-999,0.0,1.6,87,0.00,,,0.00,pywws,2013-01-03 11:21:00,
2013-01-03 11:31:00,51.8,48.1,30.54,North,-999,0.0,1.6,87,0.00,,,0.00,pywws,2013-01-03 11:31:00,
2013-01-03 11:36:00,51.8,48.1,30.55,SW,225,0.7,1.6,87,0.00,,,0.00,pywws,2013-01-03 11:36:00,
2013-01-03 11:41:00,51.8,48.1,30.54,North,-999,0.0,2.2,87,0.00,,,0.00,pywws,2013-01-03 11:41:00,
2013-01-03 11:46:00,51.8,48.1,30.54,North,-999,0.0,0.7,87,0.00,,,0.00,pywws,2013-01-03 11:46:00,
2013-01-03 11:51:00,51.8,48.1,30.55,North,-999,0.0,1.6,87,0.00,,,0.00,pywws,2013-01-03 11:51:00,
2013-01-03 12:01:00,52.0,48.2,30.55,NW,315,0.7,2.2,87,0.00,,,0.00,pywws,2013-01-03 12:01:00,
2013-01-03 12:06:00,51.8,48.1,30.55,SW,225,0.7,3.1,87,0.00,,,0.00,pywws,2013-01-03 12:06:00,
2013-01-03 12:11:00,51.8,48.1,30.55,SW,225,2.2,4.5,87,0.00,,,0.00,pywws,2013-01-03 12:11:00,
2013-01-03 12:16:00,52.2,48.4,30.55,WSW,248,0.7,3.1,87,0.00,,,0.00,pywws,2013-01-03 12:16:00,
2013-01-03 12:21:00,52.2,48.4,30.55,South,180,1.6,3.8,87,0.00,,,0.00,pywws,2013-01-03 12:21:00,
2013-01-03 12:31:00,52.2,48.4,30.54,South,180,0.7,2.2,87,0.00,,,0.00,pywws,2013-01-03 12:31:00,
2013-01-03 12:36:00,52.5,48.5,30.54,SW,225,0.7,2.2,86,0.00,,,0.00,pywws,2013-01-03 12:36:00,
2013-01-03 12:41:00,52.5,48.5,30.55,SW,225,1.6,3.1,86,0.00,,,0.00,pywws,2013-01-03 12:41:00,
2013-01-03 12:46:00,52.9,48.8,30.55,NW,315,1.6,5.4,86,0.00,,,0.00,pywws,2013-01-03 12:46:00,
2013-01-03 12:51:00,52.9,48.5,30.55,North,-999,0.0,1.6,85,0.00,,,0.00,pywws,2013-01-03 12:51:00,
2013-01-03 13:01:00,53.4,49.0,30.55,West,270,0.7,5.4,85,0.00,,,0.00,pywws,2013-01-03 13:01:00,
2013-01-03 13:06:00,57.2,52.7,30.55,West,270,0.7,2.2,85,0.00,,,0.00,pywws,2013-01-03 13:06:00,
2013-01-03 13:11:00,53.2,48.8,30.55,SW,225,1.6,3.8,85,0.00,,,0.00,pywws,2013-01-03 13:11:00,
2013-01-03 13:16:00,53.2,48.8,30.55,West,270,0.7,2.2,85,0.00,,,0.00,pywws,2013-01-03 13:16:00,
2013-01-03 13:21:00,53.1,48.7,30.56,North,-999,0.0,1.6,85,0.00,,,0.00,pywws,2013-01-03 13:21:00,
2013-01-03 13:31:00,53.2,48.8,30.55,SW,225,0.7,4.5,85,0.00,,,0.00,pywws,2013-01-03 13:31:00,
2013-01-03 13:36:00,53.2,48.8,30.56,South,180,0.7,3.1,85,0.00,,,0.00,pywws,2013-01-03 13:36:00,
2013-01-03 13:41:00,53.1,48.7,30.56,North,-999,0.0,1.6,85,0.00,,,0.00,pywws,2013-01-03 13:41:00,
2013-01-03 13:46:00,53.1,48.7,30.56,NE,45,0.7,3.8,85,0.00,,,0.00,pywws,2013-01-03 13:46:00,
2013-01-03 13:51:00,53.1,48.7,30.56,North,-999,0.0,0.7,85,0.00,,,0.00,pywws,2013-01-03 13:51:00,
2013-01-03 14:01:00,53.1,48.7,30.56,NE,45,0.7,3.1,85,0.00,,,0.00,pywws,2013-01-03 14:01:00,
2013-01-03 14:06:00,52.9,48.5,30.56,West,270,0.7,2.2,85,0.00,,,0.00,pywws,2013-01-03 14:06:00,
2013-01-03 14:11:00,52.7,48.3,30.56,NW,315,2.2,5.4,85,0.00,,,0.00,pywws,2013-01-03 14:11:00,
2013-01-03 14:16:00,46.9,42.7,30.56,SW,225,0.7,2.2,85,0.00,,,0.00,pywws,2013-01-03 14:16:00,
2013-01-03 14:21:00,52.7,48.3,30.56,West,270,1.6,3.8,85,0.00,,,0.00,pywws,2013-01-03 14:21:00,
2013-01-03 14:31:00,52.9,48.5,30.56,West,270,0.7,3.1,85,0.00,,,0.00,pywws,2013-01-03 14:31:00,
2013-01-03 14:36:00,52.7,48.3,30.56,North,-999,0.0,1.6,85,0.00,,,0.00,pywws,2013-01-03 14:36:00,
2013-01-03 14:41:00,52.7,48.3,30.56,North,-999,0.0,1.6,85,0.00,,,0.00,pywws,2013-01-03 14:41:00,
2013-01-03 14:46:00,52.7,48.3,30.56,North,-999,0.0,2.2,85,0.00,,,0.00,pywws,2013-01-03 14:46:00,
2013-01-03 14:51:00,52.7,48.3,30.56,SW,225,1.6,3.8,85,0.00,,,0.00,pywws,2013-01-03 14:51:00,
2013-01-03 15:01:00,52.5,48.1,30.57,North,-999,0.0,1.6,85,0.00,,,0.00,pywws,2013-01-03 15:01:00,
2013-01-03 15:06:00,52.5,48.1,30.57,North,-999,0.0,1.6,85,0.00,,,0.00,pywws,2013-01-03 15:06:00,
2013-01-03 15:11:00,52.9,48.5,30.57,North,-999,0.0,1.6,85,0.00,,,0.00,pywws,2013-01-03 15:11:00,
2013-01-03 15:16:00,52.9,48.5,30.57,SW,225,0.7,1.6,85,0.00,,,0.00,pywws,2013-01-03 15:16:00,
2013-01-03 15:21:00,52.9,48.5,30.57,North,-999,0.0,0.7,85,0.00,,,0.00,pywws,2013-01-03 15:21:00,
2013-01-03 15:31:00,52.5,48.5,30.57,SW,225,0.7,1.6,86,0.00,,,0.00,pywws,2013-01-03 15:31:00,
2013-01-03 15:36:00,52.2,48.1,30.58,SW,225,0.7,1.6,86,0.00,,,0.00,pywws,2013-01-03 15:36:00,
2013-01-03 15:41:00,52.3,48.3,30.58,North,-999,0.0,2.2,86,0.00,,,0.00,pywws,2013-01-03 15:41:00,
2013-01-03 15:46:00,52.3,48.3,30.58,North,-999,0.0,0.7,86,0.00,,,0.00,pywws,2013-01-03 15:46:00,
2013-01-03 15:51:00,52.3,48.3,30.58,SW,225,0.7,3.1,86,0.00,,,0.00,pywws,2013-01-03 15:51:00,
2013-01-03 16:01:00,52.2,48.1,30.58,North,-999,0.0,1.6,86,0.00,,,0.00,pywws,2013-01-03 16:01:00,
2013-01-03 16:06:00,52.2,48.1,30.58,North,-999,0.0,1.6,86,0.00,,,0.00,pywws,2013-01-03 16:06:00,
2013-01-03 16:11:00,52.0,48.2,30.58,North,-999,0.0,1.6,87,0.00,,,0.00,pywws,2013-01-03 16:11:00,
2013-01-03 16:16:00,51.8,48.1,30.58,North,-999,0.0,0.0,87,0.00,,,0.00,pywws,2013-01-03 16:16:00,
2013-01-03 16:21:00,52.0,48.2,30.58,North,-999,0.0,1.6,87,0.00,,,0.00,pywws,2013-01-03 16:21:00,
2013-01-03 16:31:00,52.0,48.2,30.58,North,-999,0.0,1.6,87,0.00,,,0.00,pywws,2013-01-03 16:31:00,
2013-01-03 16:36:00,52.0,48.2,30.58,North,-999,0.0,1.6,87,0.00,,,0.00,pywws,2013-01-03 16:36:00,
2013-01-03 16:41:00,51.8,48.1,30.59,SW,225,1.6,3.1,87,0.00,,,0.00,pywws,2013-01-03 16:41:00,
2013-01-03 16:46:00,51.6,47.9,30.59,SW,225,0.7,3.1,87,0.00,,,0.00,pywws,2013-01-03 16:46:00,
2013-01-03 16:51:00,51.6,47.9,30.59,North,-999,0.0,2.2,87,0.00,,,0.00,pywws,2013-01-03 16:51:00,
2013-01-03 17:01:00,51.4,47.7,30.60,North,-999,0.0,1.6,87,0.00,,,0.00,pywws,2013-01-03 17:01:00,
2013-01-03 17:06:00,51.4,47.7,30.60,West,270,0.7,2.2,87,0.00,,,0.00,pywws,2013-01-03 17:06:00,
2013-01-03 17:11:00,51.4,47.7,30.60,South,180,0.7,3.1,87,0.00,,,0.00,pywws,2013-01-03 17:11:00,
2013-01-03 17:16:00,51.4,47.7,30.60,West,270,0.7,3.1,87,0.00,,,0.00,pywws,2013-01-03 17:16:00,
2013-01-03 17:21:00,51.4,47.7,30.60,South,180,1.6,3.8,87,0.00,,,0.00,pywws,2013-01-03 17:21:00,
2013-01-03 17:31:00,51.6,47.9,30.60,West,270,0.7,3.1,87,0.00,,,0.00,pywws,2013-01-03 17:31:00,
2013-01-03 17:36:00,51.3,47.2,30.60,South,180,0.7,2.2,86,0.00,,,0.00,pywws,2013-01-03 17:36:00,
2013-01-03 17:41:00,51.4,47.4,30.60,North,-999,0.0,1.6,86,0.00,,,0.00,pywws,2013-01-03 17:41:00,
2013-01-03 17:46:00,51.4,47.4,30.60,WSW,248,0.7,2.2,86,0.00,,,0.00,pywws,2013-01-03 17:46:00,
2013-01-03 17:51:00,51.1,47.3,30.61,North,-999,0.0,2.2,87,0.00,,,0.00,pywws,2013-01-03 17:51:00,
2013-01-03 18:01:00,51.4,47.4,30.61,South,180,1.6,3.1,86,0.00,,,0.00,pywws,2013-01-03 18:01:00,
2013-01-03 18:06:00,51.4,47.7,30.61,West,270,0.7,3.1,87,0.00,,,0.00,pywws,2013-01-03 18:06:00,
2013-01-03 18:11:00,51.6,47.9,30.61,SW,225,0.7,3.1,87,0.00,,,0.00,pywws,2013-01-03 18:11:00,
2013-01-03 18:16:00,51.3,47.5,30.61,West,270,0.7,3.1,87,0.00,,,0.00,pywws,2013-01-03 18:16:00,
2013-01-03 18:21:00,51.3,47.5,30.60,West,270,0.7,2.2,87,0.00,,,0.00,pywws,2013-01-03 18:21:00,
2013-01-03 18:31:00,51.3,47.5,30.61,South,180,0.7,2.2,87,0.00,,,0.00,pywws,2013-01-03 18:31:00,
2013-01-03 18:36:00,51.4,47.7,30.61,South,180,0.7,2.2,87,0.00,,,0.00,pywws,2013-01-03 18:36:00,
2013-01-03 18:41:00,51.3,47.5,30.61,West,270,1.6,3.1,87,0.00,,,0.00,pywws,2013-01-03 18:41:00,
2013-01-03 18:46:00,51.3,47.5,30.61,SW,225,1.6,4.5,87,0.00,,,0.00,pywws,2013-01-03 18:46:00,
2013-01-03 18:51:00,51.3,47.5,30.61,West,270,0.7,3.1,87,0.00,,,0.00,pywws,2013-01-03 18:51:00,
2013-01-03 19:01:00,51.4,47.7,30.61,SW,225,1.6,3.1,87,0.00,,,0.00,pywws,2013-01-03 19:01:00,
2013-01-03 19:36:00,51.4,48.0,30.62,SW,225,0.7,2.2,88,0.00,,,0.00,pywws,2013-01-03 19:36:00,
2013-01-03 19:41:00,51.3,47.8,30.62,SW,225,0.7,1.6,88,0.00,,,0.00,pywws,2013-01-03 19:41:00,
2013-01-03 19:46:00,51.3,47.5,30.62,SW,225,1.6,3.8,87,0.00,,,0.00,pywws,2013-01-03 19:46:00,
2013-01-03 19:51:00,51.4,47.7,30.62,West,270,0.7,2.2,87,0.00,,,0.00,pywws,2013-01-03 19:51:00,
2013-01-03 20:01:00,51.6,47.9,30.62,West,270,0.7,2.2,87,0.00,,,0.00,pywws,2013-01-03 20:01:00,
2013-01-03 20:06:00,51.6,47.9,30.61,North,-999,0.0,1.6,87,0.00,,,0.00,pywws,2013-01-03 20:06:00,
2013-01-03 20:11:00,51.4,47.7,30.61,NW,315,0.7,2.2,87,0.00,,,0.00,pywws,2013-01-03 20:11:00,
2013-01-03 20:16:00,51.4,47.7,30.61,SW,225,1.6,4.5,87,0.00,,,0.00,pywws,2013-01-03 20:16:00,
2013-01-03 20:21:00,51.4,47.7,30.62,West,270,0.7,2.2,87,0.00,,,0.00,pywws,2013-01-03 20:21:00,
2013-01-03 20:31:00,51.8,48.4,30.62,North,-999,0.0,1.6,88,0.00,,,0.00,pywws,2013-01-03 20:31:00,
2013-01-03 20:36:00,51.6,47.9,30.62,North,-999,0.0,1.6,87,0.00,,,0.00,pywws,2013-01-03 20:36:00,
2013-01-03 20:41:00,51.6,47.9,30.62,SW,225,0.7,2.2,87,0.00,,,0.00,pywws,2013-01-03 20:41:00,
2013-01-03 20:46:00,51.6,47.9,30.62,South,180,1.6,3.8,87,0.00,,,0.00,pywws,2013-01-03 20:46:00,
2013-01-03 20:51:00,51.4,47.7,30.62,North,0,0.7,2.2,87,0.00,,,0.00,pywws,2013-01-03 20:51:00,
2013-01-03 21:01:00,51.8,48.1,30.62,SW,225,0.7,2.2,87,0.00,,,0.00,pywws,2013-01-03 21:01:00,
2013-01-03 21:05:00,51.8,48.1,30.63,North,-999,0.0,3.1,87,0.00,,,0.00,pywws,2013-01-03 21:05:00,
2013-01-03 21:10:00,51.8,48.1,30.63,South,180,0.7,3.8,87,0.00,,,0.00,pywws,2013-01-03 21:10:00,
2013-01-03 21:15:00,52.2,48.4,30.62,North,-999,0.0,1.6,87,0.00,,,0.00,pywws,2013-01-03 21:15:00,
2013-01-03 21:20:00,51.8,48.1,30.62,South,180,0.7,3.1,87,0.00,,,0.00,pywws,2013-01-03 21:20:00,
2013-01-03 21:31:00,51.6,47.9,30.63,SW,225,0.7,3.1,87,0.00,,,0.00,pywws,2013-01-03 21:31:00,
2013-01-03 21:36:00,52.0,48.2,30.63,North,-999,0.0,2.2,87,0.00,,,0.00,pywws,2013-01-03 21:36:00,
2013-01-03 21:41:00,51.8,48.1,30.64,NW,315,1.6,6.0,87,0.00,,,0.00,pywws,2013-01-03 21:41:00,
2013-01-03 21:46:00,51.8,48.1,30.64,SW,225,0.7,3.1,87,0.00,,,0.00,pywws,2013-01-03 21:46:00,
2013-01-03 21:51:00,51.8,48.1,30.64,North,-999,0.0,2.2,87,0.00,,,0.00,pywws,2013-01-03 21:51:00,
2013-01-03 22:01:00,51.8,48.1,30.64,North,-999,0.0,0.7,87,0.00,,,0.00,pywws,2013-01-03 22:01:00,
2013-01-03 22:06:00,52.0,48.2,30.63,North,0,0.7,2.2,87,0.00,,,0.00,pywws,2013-01-03 22:06:00,
2013-01-03 22:11:00,51.8,48.1,30.64,North,-999,0.0,2.2,87,0.00,,,0.00,pywws,2013-01-03 22:11:00,
2013-01-03 22:16:00,51.8,48.1,30.64,North,-999,0.0,0.7,87,0.00,,,0.00,pywws,2013-01-03 22:16:00,
2013-01-03 22:21:00,52.0,48.2,30.64,West,270,1.6,3.8,87,0.00,,,0.00,pywws,2013-01-03 22:21:00,
2013-01-03 22:31:00,51.6,47.9,30.65,North,-999,0.0,0.7,87,0.00,,,0.00,pywws,2013-01-03 22:31:00,
2013-01-03 22:36:00,51.6,47.9,30.64,North,0,1.6,3.1,87,0.00,,,0.00,pywws,2013-01-03 22:36:00,
2013-01-03 22:41:00,51.6,47.9,30.64,North,-999,0.0,1.6,87,0.00,,,0.00,pywws,2013-01-03 22:41:00,
2013-01-03 22:46:00,51.6,47.9,30.64,NW,315,2.2,5.4,87,0.00,,,0.00,pywws,2013-01-03 22:46:00,
2013-01-03 22:51:00,51.4,47.7,30.64,NE,45,0.7,1.6,87,0.00,,,0.00,pywws,2013-01-03 22:51:00,
2013-01-03 23:01:00,51.4,47.4,30.65,NW,315,1.6,3.8,86,0.00,,,0.00,pywws,2013-01-03 23:01:00,
2013-01-03 23:06:00,51.6,47.6,30.64,SE,135,0.7,3.1,86,0.00,,,0.00,pywws,2013-01-03 23:06:00,
2013-01-03 23:11:00,51.4,47.4,30.64,SE,135,0.7,2.2,86,0.00,,,0.00,pywws,2013-01-03 23:11:00,
2013-01-03 23:16:00,49.8,45.8,30.65,West,270,0.7,3.1,86,0.00,,,0.00,pywws,2013-01-03 23:16:00,
2013-01-03 23:21:00,52.5,48.5,30.65,South,180,2.2,4.5,86,0.00,,,0.00,pywws,2013-01-03 23:21:00,
2013-01-03 23:31:00,51.3,47.2,30.65,SW,225,0.7,2.2,86,0.00,,,0.00,pywws,2013-01-03 23:31:00,
2013-01-03 23:36:00,51.4,47.1,30.65,North,-999,0.0,2.2,85,0.00,,,0.00,pywws,2013-01-03 23:36:00,
2013-01-03 23:41:00,51.3,46.9,30.65,SW,225,0.7,2.2,85,0.00,,,0.00,pywws,2013-01-03 23:41:00,
2013-01-03 23:46:00,51.3,46.9,30.65,North,-999,0.0,1.6,85,0.00,,,0.00,pywws,2013-01-03 23:46:00,
2013-01-03 23:51:00,51.3,46.9,30.65,West,270,0.7,1.6,85,0.00,,,0.00,pywws,2013-01-03 23:51:00,